KD2RHT-13 Weather Reports


Display with metric or nautical units.
time (UTC)temp
F
wind
direction
speed
MPH
gust
MPH
rain 1hr
in
rain 24hr
in
rain mn
in
humidity
%
barometer
mb
20260503192350 56 210 2.0 3.0 0.00 0.00 0.00 49 1012.1
20260503191847 56 168 1.0 1.0 0.00 0.00 0.00 50 1012.1
20260503191344 56 199 2.0 2.0 0.00 0.00 0.00 51 1012.1
20260503190841 57 262 5.0 7.0 0.00 0.00 0.00 48 1012.4
20260503190338 59 242 4.0 6.0 0.00 0.00 0.00 46 1012.1
20260503185835 57 155 1.0 1.0 0.00 0.00 0.00 53 1012.1
20260503185331 56 97 2.0 2.0 0.00 0.00 0.00 49 1012.4
20260503184826 56 183 2.0 2.0 0.00 0.00 0.00 47 1012.1
20260503184322 57 191 2.0 3.0 0.00 0.00 0.00 45 1012.1
20260503183818 57 317 3.0 6.0 0.00 0.00 0.00 44 1012.4
20260503183315 56 277 3.0 5.0 0.00 0.00 0.00 48 1012.4
20260503182813 57 162 2.0 3.0 0.00 0.00 0.00 44 1012.4
20260503182312 57 231 2.0 2.0 0.00 0.00 0.00 46 1012.7
20260503181809 58 217 1.0 2.0 0.00 0.00 0.00 48 1012.4
20260503181306 59 212 3.0 3.0 0.00 0.00 0.00 48 1012.7
20260503180802 58 254 3.0 3.0 0.00 0.00 0.00 47 1012.7
20260503180300 57 268 3.0 3.0 0.00 0.00 0.00 49 1012.7
20260503175756 58 205 2.0 2.0 0.00 0.00 0.00 46 1013.1
20260503175254 56 202 3.0 3.0 0.00 0.00 0.00 44 1013.1
20260503174749 57 165 2.0 2.0 0.00 0.00 0.00 52 1012.7
20260503174248 58 189 2.0 3.0 0.00 0.00 0.00 47 1013.1
20260503173748 57 212 2.0 2.0 0.00 0.00 0.00 42 1013.1
20260503173244 55 164 1.0 3.0 0.00 0.00 0.00 45 1013.5
20260503172741 56 286 2.0 3.0 0.00 0.00 0.00 47 1013.1
20260503172238 54 105 2.0 2.0 0.00 0.00 0.00 48 1013.5
20260503171735 56 221 4.0 5.0 0.00 0.00 0.00 45 1013.1
20260503171232 56 343 4.0 7.0 0.00 0.00 0.00 48 1013.5
20260503170729 55 167 1.0 1.0 0.00 0.00 0.00 49 1013.5
20260503170226 55 357 3.0 5.0 0.00 0.00 0.00 45 1013.5
20260503160147 52 219 3.0 5.0 0.00 0.00 0.00 47 1014.5
20260503150617 51 183 5.0 7.0 0.00 0.00 0.00 46 1015.2
20260503150114 50 281 4.0 7.0 0.00 0.00 0.00 48 1015.2
20260503131007 46 143 1.0 2.0 0.00 0.00 0.00 67 1015.6
20260503130504 47 282 5.0 7.0 0.00 0.00 0.00 65 1015.6
20260503110355 39 150 0.0 0.0 0.00 0.00 0.00 95 1015.2
20260503090241 39 161 0.0 0.0 0.00 0.00 0.00 84 1014.9
20260503081208 40 203 0.0 1.0 0.00 0.00 0.00 87 1014.9
20260503080704 40 160 1.0 1.0 0.00 0.00 0.00 87 1014.9
20260503080201 40 158 0.0 0.0 0.00 0.00 0.00 87 1014.9
20260503072637 40 164 0.0 0.0 0.00 0.00 0.00 88 1014.9
20260503072134 40 157 0.0 0.0 0.00 0.00 0.00 88 1014.9
20260503071631 40 165 0.0 0.0 0.00 0.00 0.00 88 1014.9
20260503071128 40 151 0.0 0.0 0.00 0.00 0.00 88 1014.9
20260503070625 40 155 0.0 0.0 0.00 0.00 0.00 87 1014.9
20260503070123 40 160 0.0 0.0 0.00 0.00 0.00 88 1014.9
20260503055043 40 143 0.0 0.0 0.00 0.00 0.00 89 1014.9
20260503054539 40 157 0.0 0.0 0.00 0.00 0.00 89 1014.9
20260503054037 40 157 0.0 0.0 0.00 0.00 0.00 88 1014.9
20260503053535 40 160 0.0 0.0 0.00 0.00 0.00 88 1014.9
20260503053032 40 157 0.0 0.0 0.00 0.00 0.00 88 1015.2
20260503052529 40 158 0.0 0.0 0.00 0.00 0.00 88 1015.2
20260503052025 40 176 0.0 0.0 0.00 0.00 0.00 88 1015.2
20260503051520 40 158 0.0 0.0 0.00 0.00 0.00 87 1015.2
20260503051019 40 160 0.0 0.0 0.00 0.00 0.00 87 1015.2
20260503050514 40 164 0.0 0.0 0.00 0.00 0.00 87 1015.6
20260503050012 40 120 0.0 0.0 0.00 0.00 0.00 87 1015.2
20260503045509 40 149 0.0 0.0 0.00 0.00 0.00 87 1015.6
20260503045006 40 133 0.0 0.0 0.00 0.00 0.00 87 1015.6
20260503044502 40 155 0.0 0.0 0.00 0.00 0.00 87 1015.6
20260503044000 40 158 0.0 0.0 0.00 0.00 0.00 87 1015.6
20260503043456 40 157 0.0 0.0 0.00 0.00 0.00 87 1015.9
20260503042953 40 161 0.0 0.0 0.00 0.00 0.00 87 1015.6
20260503042449 40 158 0.0 0.0 0.00 0.00 0.00 86 1015.9
20260503041946 40 163 0.0 0.0 0.00 0.00 0.00 86 1015.9
20260503041443 40 160 0.0 0.0 0.00 0.00 0.00 86 1015.9
20260503040941 40 158 0.0 0.0 0.00 0.00 0.00 86 1015.9
20260503040437 40 156 0.0 0.0 0.00 0.00 0.00 86 1015.9
20260503035935 40 163 0.0 0.0 0.00 0.00 0.00 86 1015.9
20260503035431 40 158 0.0 0.0 0.00 0.00 0.00 85 1015.9
20260503034929 40 163 0.0 0.0 0.00 0.00 0.00 85 1015.9
20260503034427 40 155 0.0 0.0 0.00 0.00 0.00 84 1015.9
20260503033923 40 164 0.0 0.0 0.00 0.00 0.00 84 1015.9
20260503033421 40 180 0.0 0.0 0.00 0.00 0.00 85 1015.9
20260503032919 40 163 0.0 0.0 0.00 0.00 0.00 85 1015.9
20260503032417 40 160 0.0 0.0 0.00 0.00 0.00 86 1016.2
20260503031914 40 155 0.0 0.0 0.00 0.00 0.00 86 1015.9
20260503031412 40 162 0.0 0.0 0.00 0.00 0.00 86 1015.9
20260503030908 40 241 1.0 1.0 0.00 0.00 0.00 87 1015.9
20260503030405 40 154 0.0 0.0 0.00 0.00 0.00 87 1015.9
20260503025901 40 154 0.0 0.0 0.00 0.00 0.00 87 1015.9
20260503025359 39 171 0.0 0.0 0.00 0.00 0.00 88 1016.2
20260503024856 39 199 0.0 0.0 0.00 0.00 0.00 89 1015.9
20260503024353 39 175 0.0 0.0 0.00 0.00 0.00 90 1015.9
20260503023849 39 158 0.0 0.0 0.00 0.00 0.00 90 1015.9
20260503023341 38 171 0.0 0.0 0.00 0.00 0.00 92 1015.9
20260503022838 38 158 0.0 0.0 0.00 0.00 0.00 92 1016.6
20260503022337 38 158 0.0 0.0 0.00 0.00 0.00 92 1016.2
20260503021834 38 158 0.0 0.0 0.00 0.00 0.00 92 1016.2
20260503021330 37 157 0.0 0.0 0.00 0.00 0.00 92 1016.2
20260503020828 37 157 0.0 0.0 0.00 0.00 0.00 91 1016.2
20260503020326 38 158 0.0 0.0 0.00 0.00 0.00 91 1016.2
20260503015822 38 163 0.0 0.0 0.00 0.00 0.00 91 1016.2
20260503015319 37 157 0.0 0.0 0.00 0.00 0.00 90 1016.6
20260503014815 38 157 0.0 0.0 0.00 0.00 0.00 89 1016.2
20260503014313 38 157 0.0 0.0 0.00 0.00 0.00 88 1016.2
20260503013810 39 158 0.0 0.0 0.00 0.00 0.00 88 1016.2
20260503013307 39 158 0.0 0.0 0.00 0.00 0.00 87 1015.9
20260503012805 40 159 0.0 0.0 0.00 0.00 0.00 86 1016.2
20260503012305 40 159 0.0 0.0 0.00 0.00 0.00 85 1016.2
20260503011758 40 164 0.0 1.0 0.00 0.00 0.00 85 1016.6
20260503011255 40 164 0.0 0.0 0.00 0.00 0.00 84 1016.6
20260503010751 41 166 0.0 1.0 0.00 0.00 0.00 84 1016.2
20260503010249 41 205 2.0 2.0 0.00 0.00 0.00 83 1016.2
20260503005746 41 164 1.0 1.0 0.00 0.00 0.00 83 1016.2
20260503005243 41 169 1.0 1.0 0.00 0.00 0.00 82 1016.6
20260503004739 41 166 1.0 1.0 0.00 0.00 0.00 82 1015.9
20260503004237 41 169 3.0 3.0 0.00 0.00 0.00 81 1015.9
20260503003735 41 186 1.0 1.0 0.00 0.00 0.00 81 1016.2
20260503003231 41 229 1.0 2.0 0.00 0.00 0.00 80 1015.9
20260503002728 42 228 1.0 1.0 0.00 0.00 0.00 80 1015.9
20260503002225 42 266 3.0 3.0 0.00 0.00 0.00 79 1015.9
20260503001721 42 271 1.0 2.0 0.00 0.00 0.00 79 1015.9
20260503001217 42 194 1.0 1.0 0.00 0.00 0.00 79 1015.9
20260503000715 42 181 1.0 1.0 0.00 0.00 0.00 78 1015.9
20260503000212 42 187 1.0 1.0 0.00 0.00 0.00 78 1015.9
20260502235709 42 292 3.0 5.0 0.00 0.00 0.00 77 1015.9
20260502235208 42 223 2.0 2.0 0.00 0.00 0.00 76 1015.9
20260502234703 43 221 1.0 2.0 0.00 0.00 0.00 75 1015.6
20260502234200 43 327 2.0 3.0 0.00 0.00 0.00 74 1015.6
20260502233656 43 202 2.0 2.0 0.00 0.00 0.00 73 1015.6
20260502233153 43 197 2.0 2.0 0.00 0.00 0.00 73 1015.6
20260502232649 44 199 3.0 5.0 0.00 0.00 0.00 72 1015.9
20260502232147 44 349 2.0 3.0 0.00 0.00 0.00 71 1015.6
20260502231643 44 207 3.0 3.0 0.00 0.00 0.00 71 1015.9
20260502231141 44 149 2.0 2.0 0.00 0.00 0.00 72 1015.6
20260502230640 44 176 2.0 3.0 0.00 0.00 0.00 73 1015.6
20260502230137 44 334 5.0 8.0 0.00 0.00 0.00 71 1015.6
20260502225633 45 207 1.0 2.0 0.00 0.00 0.00 69 1015.6
20260502225131 46 324 5.0 6.0 0.00 0.00 0.00 68 1015.2
20260502224626 46 234 2.0 5.0 0.00 0.00 0.00 68 1015.6
20260502224123 46 242 2.0 2.0 0.00 0.00 0.00 67 1015.2
20260502223621 46 277 2.0 3.0 0.00 0.00 0.00 68 1015.6
20260502223119 47 242 5.0 6.0 0.00 0.00 0.00 66 1015.6
20260502222616 46 164 2.0 2.0 0.00 0.00 0.00 66 1015.2
20260502222112 47 221 2.0 3.0 0.00 0.00 0.00 67 1015.2
20260502221608 47 290 2.0 2.0 0.00 0.00 0.00 65 1015.2
20260502221106 47 158 0.0 1.0 0.00 0.00 0.00 65 1015.6
20260502220601 48 197 2.0 3.0 0.00 0.00 0.00 65 1015.2
20260502220058 47 277 5.0 6.0 0.00 0.00 0.00 65 1014.9
20260502215555 47 218 4.0 7.0 0.00 0.00 0.00 64 1015.2
20260502215052 47 207 5.0 7.0 0.00 0.00 0.00 64 1015.2
20260502214549 47 229 4.0 5.0 0.00 0.00 0.00 65 1015.2
20260502214047 47 278 3.0 3.0 0.00 0.00 0.00 65 1015.2
20260502213543 47 262 2.0 2.0 0.00 0.00 0.00 64 1014.9
20260502213041 48 155 4.0 6.0 0.00 0.00 0.00 62 1014.9
20260502212540 49 294 2.0 5.0 0.00 0.00 0.00 64 1014.9
20260502212037 49 300 2.0 5.0 0.00 0.00 0.00 63 1014.9
20260502211532 49 209 3.0 3.0 0.00 0.00 0.00 62 1014.9
20260502211030 48 213 3.0 3.0 0.00 0.00 0.00 63 1014.9
20260502210527 48 177 2.0 3.0 0.00 0.00 0.00 63 1014.9
20260502210024 48 204 3.0 5.0 0.00 0.00 0.00 63 1015.2
20260502205520 48 195 1.0 1.0 0.00 0.00 0.00 61 1015.2
20260502205018 48 354 6.0 9.0 0.00 0.00 0.00 62 1015.2
20260502204514 47 203 4.0 5.0 0.00 0.00 0.00 62 1015.2
20260502204012 48 329 6.0 11.0 0.00 0.00 0.00 60 1014.9
20260502203509 49 288 4.0 5.0 0.00 0.00 0.00 61 1014.9
20260502203006 49 218 1.0 1.0 0.00 0.00 0.00 63 1014.9
20260502202502 49 271 3.0 3.0 0.00 0.00 0.00 60 1014.9
20260502202000 49 212 1.0 3.0 0.00 0.00 0.00 60 1015.2
20260502201456 49 229 3.0 3.0 0.00 0.00 0.00 58 1014.9
20260502200953 48 203 2.0 3.0 0.00 0.00 0.00 59 1014.9
20260502200448 48 257 1.0 2.0 0.00 0.00 0.00 59 1015.2
20260502195946 49 205 0.0 1.0 0.00 0.00 0.00 58 1015.6
20260502195444 48 151 1.0 2.0 0.00 0.00 0.00 61 1015.2
20260502194940 48 184 1.0 1.0 0.00 0.00 0.00 60 1015.2
20260502194437 48 214 2.0 2.0 0.00 0.00 0.00 60 1015.6
20260502193932 48 181 4.0 5.0 0.00 0.00 0.00 62 1015.6
20260502193430 47 282 3.0 3.0 0.00 0.00 0.00 63 1015.6
20260502192925 47 195 3.0 3.0 0.00 0.00 0.00 65 1015.6